Hourly Data Report for October 02, 2017

All times are specified in Local Standard Time (LST). Add 1 hour to adjust for Daylight Saving Time where and when it is observed.

FORT SMITH A
NORTHWEST TERRITORIES

60°01'13.000" N
111°57'43.000" W
205.10 m
2202201
71934
YSM

Download Data

Hourly Data (October 2017)
Hourly Data Report for October 2, 2017
Temp Definition
°C
Dew Point Temp Definition
°C
Rel Hum Definition
%
Wind Dir Definition
10's deg

Wind Spd Definition
km/h
Visibility Definition
km
Stn Press Definition
kPa
Hmdx Definition


Wind Chill Definition


Weather Definition


TIME
00:00 Legend Double Dagger 2.3 0.1 86 33 14 24.1 99.91     LegendNANA
01:00 Legend Double Dagger 1.6 -1.1 82 34 14 24.1 99.97     LegendNANA
02:00 Legend Double Dagger 1.1 -1.9 80 34 13 24.1 100.02     Mainly Clear
03:00 Legend Double Dagger 0.6 -2.5 80 33 13 24.1 100.08     LegendNANA
04:00 Legend Double Dagger 0.2 -1.3 90 32 12 24.1 100.15     LegendNANA
05:00 Legend Double Dagger 0.8 -1.2 86 32 9 24.1 100.20     Mostly Cloudy
06:00 Legend Double Dagger 1.5 -0.8 85 33 10 24.1 100.23     LegendNANA
07:00 Legend Double Dagger 1.2 -0.3 90 31 10 24.1 100.28     LegendNANA
08:00 Legend Double Dagger 1.9 0.2 88 31 10 24.1 100.32     Clear
09:00 Legend Double Dagger 3.1 0.1 80 31 12 24.1 100.36     LegendNANA
10:00 Legend Double Dagger 4.1 -0.6 71 31 13 24.1 100.34     LegendNANA
11:00 Legend Double Dagger 5.1 -0.4 68 30 14 24.1 100.36     Mostly Cloudy
12:00 Legend Double Dagger 6.5 -0.3 62 28 16 24.1 100.31     LegendNANA
13:00 Legend Double Dagger 7.2 0.1 61 30 15 24.1 100.28     LegendNANA
14:00 Legend Double Dagger 7.7 0.9 62 28 19 24.1 100.25     Mostly Cloudy
15:00 Legend Double Dagger 7.8 0.5 60 28 19 24.1 100.21     LegendNANA
16:00 Legend Double Dagger 8.5 0.6 57 27 14 24.1 100.13     LegendNANA
17:00 Legend Double Dagger 7.8 0.6 60 28 15 24.1 100.13     Mostly Cloudy
18:00 Legend Double Dagger 4.7 0.3 74 22 6 24.1 100.11     LegendNANA
19:00 Legend Double Dagger 3.2 -0.5 77 36 1 24.1 100.11     LegendNANA
20:00 Legend Double Dagger 2.9 -0.7 77 20 3 24.1 100.04     Mostly Cloudy
21:00 Legend Double Dagger 0.8 -1.4 85 18 6 24.1 100.00     LegendNANA
22:00 Legend Double Dagger 0.6 -1.7 85 16 6 24.1 99.92     LegendNANA
23:00 Legend Double Dagger 0.3 -2.1 84 16 7 24.1 99.86     Mainly Clear

Notes on Data Quality.

Legend

  • E = Estimated
  • M = Missing
  • NA = Not Available
  • ‡ = Partner data that is not subject to review by the National Climate Archives
Date modified: